Buckland Airport
PABL : rendu visible

Aérodrome :











RETROUVEZ-NOUS SUR...

 
LOGIN :

S'inscrire | Disclaimer

   EN    FR    IT 

 









Légende :    VFR   VFR Marginal   IFR   IFR Intensif   IFR Très Intensif
Visi : 
Plafond : 
>= 8 km
>= 3000ft
5 à 8 km
1000 à 3000 ft
1500m à 5 km
500 à 1000 ft
800 à 1500m
200 à 500 ft
< 800m
< 200 ft
Symboles :   Orages  Brouillard  Fortes neiges  Fortes précipitations  Vent > 20 kt






- Altitude de l'aérodrome : 31 ft
- Code IATA : BVK


PABL - Buckland

DERNIER METAR :
  • 231856Z AUTO 00000KT 10SM BKN029 M11/M12 A2937 RMK AO2 SLP947 T11111122 FZRANO

METARs EXPIRÉS :
  • 231842Z AUTO 00000KT 10SM BKN029 M11/M12 A2937 RMK AO2 FZRANO
  • 231816Z AUTO 00000KT 10SM FEW029 M11/M12 A2936 RMK AO2 FZRANO
  • 231756Z AUTO 04004KT 10SM BKN029 M11/M12 A2936 RMK AO2 SLP945 60000 T11061117 11083 21117 56002 FZRANO
  • 231735Z AUTO 00000KT 10SM BKN029 M11/M13 A2936 RMK AO2 FZRANO
  • 231656Z AUTO 18004KT 10SM FEW031 SCT080 M11/M13 A2936 RMK AO2 SLP945 T11111128 FZRANO

TAF N/A
FIR PAZA / Amérique du Nord



MET'MAP, la Météo Aéronautique d'un coup d'oeil ! - Copyright ORBIFLY Décembre 2007 - Disclaimer

ORBIFLY MET'MAP TEAM :

Programmation & Développement : Alexandra Zaïnal
Sur une idée originale de : Baudouin d'Aumeries
Assistance à la programmation : Marc-Olivier Méhu
Soutien technique & logistique : Manuel Goepfert

Contact : metmap@orbifly.com




SOURCES & CREDITS :

   NOAA       Earth
Advisory